Location: Halfweg
(53.1000°N, 6.6000°E)
Time: 21:16:08
(UTC+00:00)

Cosmos 1707 - Pass Details

Date: 15 May 2026
Orbit: 332 x 334 km, 82.5° (Epoch: 10 June)

Event Time Altitude Azimuth Distance (km) Brightness Sun altitude
Exits shadow 21:00:05 12° 103° (ESE) 1,206 4.1 -10.9°
Drops below altitude 10° 21:02:16 10° 56° (ENE) 1,342 4.8 -11.1°
Enters shadow 21:56:55 -69° 192° (SSW) 12,269 9.6 -15.1°
Maximum altitude 22:32:39 36° 286° (WNW) 584 3.2 -16.8°
